カタログに戻る

COSMOS 374 DEB

運用中UNKNOWN
NORAD 4616·DEBRIS·🇷🇺 Russia

打ち上げ Oct 23, 1970 から Baikonur Cosmodrome

Loading…

次のパス (今後24時間)

TLE

最新Source: Space-Track

元期: Sep 14, 2026, 07:19 UTC

1 04616U 70089C   26257.30506119  .00000191  00000-0  16796-3 0  9991
2 04616  62.7969   6.1834 0984713  97.0574 274.3264 12.73660675555426

AllMySatでCOSMOS 374 DEBをリアルタイム追跡

Download on the App Store